{"data":{"norad_id":66498,"epoch":"2026-05-24T17:08:26.022048Z","epoch_age_seconds":99895,"freshness":"FRESH","line1":"1 66498U 25263P   26144.71419007  .00027915  00000+0  10197-2 0  9990","line2":"2 66498  43.0020 281.5502 0000972 268.3803  91.6938 15.27592914 30526","mean_motion":15.27592914,"eccentricity":9.72e-5,"inclination_deg":43.002,"raan_deg":281.5502,"arg_perigee_deg":268.3803,"mean_anomaly_deg":91.6938,"bstar":0.0010197,"rev_number":3052,"period_min":94.26595179925,"perigee_km":482.34352362036,"apogee_km":483.6773306802,"semimajor_km":6861.1474271503,"source":"CELESTRAK","updated_at":"2026-05-25T13:38:21.244492Z"}}